Time,TemperatureF,DewpointF,PressureIn,WindDirection,WindDirectionDegrees,WindSpeedMPH,WindSpeedGustMPH,Humidity,HourlyPrecipIn,Conditions,Clouds,dailyrainin,SoftwareType,DateUTC
2013-01-15 00:07:00,11.8,6.0,29.68,SW,225,0.0,-999.0,77,-99.99,,,0.00,Acu-Link.com,2013-01-15 06:07:00,
2013-01-15 00:22:00,11.7,7.0,29.68,NW,315,0.0,-999.0,81,-99.99,,,0.00,Acu-Link.com,2013-01-15 06:22:00,
2013-01-15 00:37:00,12.4,7.4,29.68,SSW,202,0.0,-999.0,80,-99.99,,,0.00,Acu-Link.com,2013-01-15 06:37:00,
2013-01-15 00:52:00,12.0,6.5,29.68,SSW,202,0.0,-999.0,78,-99.99,,,0.00,Acu-Link.com,2013-01-15 06:52:00,
2013-01-15 01:07:00,11.1,5.3,29.68,ESE,112,0.0,-999.0,77,-99.99,,,0.00,Acu-Link.com,2013-01-15 07:07:00,
2013-01-15 01:22:00,11.1,5.9,29.68,SW,225,0.0,-999.0,79,-99.99,,,0.00,Acu-Link.com,2013-01-15 07:22:00,
2013-01-15 01:37:00,10.6,5.4,29.68,SSW,202,0.0,-999.0,79,-99.99,,,0.00,Acu-Link.com,2013-01-15 07:37:00,
2013-01-15 01:52:00,10.8,5.9,29.68,SW,225,0.0,-999.0,80,-99.99,,,0.00,Acu-Link.com,2013-01-15 07:52:00,
2013-01-15 02:08:00,11.1,6.4,29.68,SW,225,0.0,-999.0,81,-99.99,,,0.00,Acu-Link.com,2013-01-15 08:08:00,
2013-01-15 02:23:00,11.8,7.7,29.68,WSW,247,0.0,-999.0,83,-99.99,,,0.00,Acu-Link.com,2013-01-15 08:23:00,
2013-01-15 02:38:00,14.4,9.7,29.68,SSW,202,0.0,-999.0,81,-99.99,,,0.00,Acu-Link.com,2013-01-15 08:38:00,
2013-01-15 02:53:00,14.9,9.3,29.68,South,180,0.0,-999.0,78,-99.99,,,0.00,Acu-Link.com,2013-01-15 08:53:00,
2013-01-15 03:13:00,15.4,9.5,29.67,SW,225,0.0,-999.0,77,-99.99,,,0.00,Acu-Link.com,2013-01-15 09:13:00,
2013-01-15 03:28:00,15.4,9.8,29.67,SSW,202,0.0,-999.0,78,-99.99,,,0.00,Acu-Link.com,2013-01-15 09:28:00,
2013-01-15 03:44:00,14.9,9.9,29.66,SW,225,0.0,-999.0,80,-99.99,,,0.00,Acu-Link.com,2013-01-15 09:44:00,
2013-01-15 03:59:00,14.9,9.9,29.66,SSE,157,0.0,-999.0,80,-99.99,,,0.00,Acu-Link.com,2013-01-15 09:59:00,
2013-01-15 04:14:00,14.7,9.9,29.65,South,180,0.0,-999.0,81,-99.99,,,0.00,Acu-Link.com,2013-01-15 10:14:00,
2013-01-15 04:29:00,14.5,10.0,29.65,NNW,337,0.0,-999.0,82,-99.99,,,0.00,Acu-Link.com,2013-01-15 10:29:00,
2013-01-15 04:44:00,14.0,9.3,29.63,SSW,202,0.0,-999.0,81,-99.99,,,0.00,Acu-Link.com,2013-01-15 10:44:00,
2013-01-15 04:59:00,14.0,9.5,29.63,SW,225,0.0,-999.0,82,-99.99,,,0.00,Acu-Link.com,2013-01-15 10:59:00,
2013-01-15 05:14:00,13.6,9.4,29.63,SSE,157,0.0,-999.0,83,-99.99,,,0.00,Acu-Link.com,2013-01-15 11:14:00,
2013-01-15 05:30:00,12.6,8.2,29.63,SSE,157,0.0,-999.0,82,-99.99,,,0.00,Acu-Link.com,2013-01-15 11:30:00,
2013-01-15 05:45:00,12.6,9.2,29.63,SW,225,0.0,-999.0,86,-99.99,,,0.00,Acu-Link.com,2013-01-15 11:45:00,
2013-01-15 06:00:00,11.3,7.7,29.64,South,180,0.0,-999.0,85,-99.99,,,0.00,Acu-Link.com,2013-01-15 12:00:00,
2013-01-15 06:15:00,11.3,7.9,29.64,SSW,202,0.0,-999.0,86,-99.99,,,0.00,Acu-Link.com,2013-01-15 12:15:00,
2013-01-15 06:30:00,12.2,8.3,29.64,SSW,202,0.0,-999.0,84,-99.99,,,0.00,Acu-Link.com,2013-01-15 12:30:00,
2013-01-15 06:45:00,12.4,8.2,29.65,SW,225,0.0,-999.0,83,-99.99,,,0.00,Acu-Link.com,2013-01-15 12:45:00,
2013-01-15 07:00:00,12.7,8.5,29.65,SW,225,0.0,-999.0,83,-99.99,,,0.00,Acu-Link.com,2013-01-15 13:00:00,
2013-01-15 07:15:00,12.6,8.4,29.65,SW,225,0.0,-999.0,83,-99.99,,,0.00,Acu-Link.com,2013-01-15 13:15:00,
2013-01-15 07:30:00,12.0,7.8,29.66,SW,225,0.0,-999.0,83,-99.99,,,0.00,Acu-Link.com,2013-01-15 13:30:00,
2013-01-15 07:46:00,11.3,7.2,29.66,WSW,247,0.0,-999.0,83,-99.99,,,0.00,Acu-Link.com,2013-01-15 13:46:00,
2013-01-15 08:01:00,10.9,7.0,29.66,SSW,202,0.0,-999.0,84,-99.99,,,0.00,Acu-Link.com,2013-01-15 14:01:00,
2013-01-15 08:16:00,14.5,10.0,29.67,South,180,0.0,-999.0,82,-99.99,,,0.00,Acu-Link.com,2013-01-15 14:16:00,
2013-01-15 08:31:00,18.7,13.3,29.66,SSW,202,0.0,-999.0,79,-99.99,,,0.00,Acu-Link.com,2013-01-15 14:31:00,
2013-01-15 08:46:00,19.2,13.2,29.66,SSW,202,0.0,-999.0,77,-99.99,,,0.00,Acu-Link.com,2013-01-15 14:46:00,
2013-01-15 09:01:00,20.1,14.4,29.66,SSW,202,0.0,-999.0,78,-99.99,,,0.00,Acu-Link.com,2013-01-15 15:01:00,
2013-01-15 09:16:00,20.7,14.1,29.65,SSW,202,0.0,-999.0,75,-99.99,,,0.00,Acu-Link.com,2013-01-15 15:16:00,
2013-01-15 09:31:00,22.1,15.1,29.65,SSW,202,0.0,-999.0,74,-99.99,,,0.00,Acu-Link.com,2013-01-15 15:31:00,
2013-01-15 09:46:00,24.1,16.4,29.64,SW,225,0.0,-999.0,72,-99.99,,,0.00,Acu-Link.com,2013-01-15 15:46:00,
2013-01-15 10:01:00,25.7,16.6,29.64,South,180,0.0,-999.0,68,-99.99,,,0.00,Acu-Link.com,2013-01-15 16:01:00,
2013-01-15 10:17:00,26.6,16.8,29.64,WSW,247,0.0,-999.0,66,-99.99,,,0.00,Acu-Link.com,2013-01-15 16:17:00,
2013-01-15 10:32:00,27.5,15.8,29.63,SW,225,0.0,-999.0,61,-99.99,,,0.00,Acu-Link.com,2013-01-15 16:32:00,
2013-01-15 10:47:00,28.8,17.1,29.62,SSW,202,0.0,-999.0,61,-99.99,,,0.00,Acu-Link.com,2013-01-15 16:47:00,
2013-01-15 11:02:00,29.3,16.0,29.62,WSW,247,0.0,-999.0,57,-99.99,,,0.00,Acu-Link.com,2013-01-15 17:02:00,
2013-01-15 11:17:00,30.7,16.5,29.61,NNW,337,0.0,-999.0,55,-99.99,,,0.00,Acu-Link.com,2013-01-15 17:17:00,
2013-01-15 11:32:00,30.6,15.5,29.61,West,270,0.0,-999.0,53,-99.99,,,0.00,Acu-Link.com,2013-01-15 17:32:00,
2013-01-15 11:47:00,31.6,15.6,29.59,WNW,292,0.0,-999.0,51,-99.99,,,0.00,Acu-Link.com,2013-01-15 17:47:00,
2013-01-15 12:02:00,32.7,16.1,29.59,SSW,202,0.0,-999.0,50,-99.99,,,0.00,Acu-Link.com,2013-01-15 18:02:00,
2013-01-15 12:17:00,34.3,16.7,29.58,SSW,202,0.0,-999.0,48,-99.99,,,0.00,Acu-Link.com,2013-01-15 18:17:00,
2013-01-15 12:33:00,32.9,14.9,29.58,WSW,247,0.0,-999.0,47,-99.99,,,0.00,Acu-Link.com,2013-01-15 18:33:00,
2013-01-15 12:48:00,33.8,15.2,29.57,SSW,202,0.0,-999.0,46,-99.99,,,0.00,Acu-Link.com,2013-01-15 18:48:00,
2013-01-15 13:03:00,34.5,15.9,29.56,SW,225,0.0,-999.0,46,-99.99,,,0.00,Acu-Link.com,2013-01-15 19:03:00,
2013-01-15 13:18:00,34.2,15.6,29.55,South,180,0.0,-999.0,46,-99.99,,,0.00,Acu-Link.com,2013-01-15 19:18:00,
2013-01-15 13:33:00,34.9,15.7,29.55,SW,225,0.0,-999.0,45,-99.99,,,0.00,Acu-Link.com,2013-01-15 19:33:00,
2013-01-15 13:48:00,34.0,14.4,29.55,ESE,112,0.0,-999.0,44,-99.99,,,0.00,Acu-Link.com,2013-01-15 19:48:00,
2013-01-15 14:03:00,35.6,15.3,29.54,SSW,202,0.0,-999.0,43,-99.99,,,0.00,Acu-Link.com,2013-01-15 20:03:00,
2013-01-15 14:18:00,35.4,15.7,29.53,SW,225,0.0,-999.0,44,-99.99,,,0.00,Acu-Link.com,2013-01-15 20:18:00,
2013-01-15 14:33:00,34.9,14.7,29.53,WSW,247,0.0,-999.0,43,-99.99,,,0.00,Acu-Link.com,2013-01-15 20:33:00,
2013-01-15 14:49:00,34.0,14.4,29.53,SSW,202,0.0,-999.0,44,-99.99,,,0.00,Acu-Link.com,2013-01-15 20:49:00,
2013-01-15 15:04:00,34.5,14.9,29.54,SW,225,0.0,-999.0,44,-99.99,,,0.00,Acu-Link.com,2013-01-15 21:04:00,
2013-01-15 15:19:00,34.5,14.9,29.53,SW,225,0.0,-999.0,44,-99.99,,,0.00,Acu-Link.com,2013-01-15 21:19:00,
2013-01-15 15:34:00,34.3,15.7,29.53,South,180,0.0,-999.0,46,-99.99,,,0.00,Acu-Link.com,2013-01-15 21:34:00,
2013-01-15 15:49:00,33.4,15.4,29.53,SSW,202,0.0,-999.0,47,-99.99,,,0.00,Acu-Link.com,2013-01-15 21:49:00,
2013-01-15 16:04:00,33.3,15.3,29.52,SW,225,0.0,-999.0,47,-99.99,,,0.00,Acu-Link.com,2013-01-15 22:04:00,
2013-01-15 16:19:00,32.0,15.0,29.52,SSW,202,0.0,-999.0,49,-99.99,,,0.00,Acu-Link.com,2013-01-15 22:19:00,
2013-01-15 16:34:00,30.7,14.7,29.52,SSW,202,0.0,-999.0,51,-99.99,,,0.00,Acu-Link.com,2013-01-15 22:34:00,
2013-01-15 16:49:00,29.8,14.3,29.51,SW,225,0.0,-999.0,52,-99.99,,,0.00,Acu-Link.com,2013-01-15 22:49:00,
2013-01-15 17:05:00,28.9,14.4,29.51,SSW,202,0.0,-999.0,54,-99.99,,,0.00,Acu-Link.com,2013-01-15 23:05:00,
2013-01-15 17:20:00,27.7,14.5,29.50,SW,225,0.0,-999.0,57,-99.99,,,0.00,Acu-Link.com,2013-01-15 23:20:00,
2013-01-15 17:35:00,26.2,13.9,29.50,SW,225,0.0,-999.0,59,-99.99,,,0.00,Acu-Link.com,2013-01-15 23:35:00,
2013-01-15 17:50:00,25.5,13.9,29.50,SW,225,0.0,-999.0,61,-99.99,,,0.00,Acu-Link.com,2013-01-15 23:50:00,
2013-01-15 18:05:00,25.0,13.8,29.49,WSW,247,0.0,-999.0,62,-99.99,,,0.00,Acu-Link.com,2013-01-16 00:05:00,
2013-01-15 18:20:00,23.5,13.1,29.50,SSW,202,0.0,-999.0,64,-99.99,,,0.00,Acu-Link.com,2013-01-16 00:20:00,
2013-01-15 18:35:00,23.2,12.9,29.50,SW,225,0.0,-999.0,64,-99.99,,,0.00,Acu-Link.com,2013-01-16 00:35:00,
2013-01-15 18:50:00,21.9,12.3,29.50,SW,225,0.0,-999.0,66,-99.99,,,0.00,Acu-Link.com,2013-01-16 00:50:00,
2013-01-15 19:05:00,21.9,12.7,29.50,SSW,202,0.0,-999.0,67,-99.99,,,0.00,Acu-Link.com,2013-01-16 01:05:00,
2013-01-15 19:21:00,21.4,12.5,29.49,SSW,202,0.0,-999.0,68,-99.99,,,0.00,Acu-Link.com,2013-01-16 01:21:00,
2013-01-15 19:36:00,19.8,11.3,29.49,SW,225,0.0,-999.0,69,-99.99,,,0.00,Acu-Link.com,2013-01-16 01:36:00,
2013-01-15 19:51:00,19.0,11.8,29.47,WSW,247,0.0,-999.0,73,-99.99,,,0.00,Acu-Link.com,2013-01-16 01:51:00,
2013-01-15 20:06:00,18.9,11.4,29.47,South,180,0.0,-999.0,72,-99.99,,,0.00,Acu-Link.com,2013-01-16 02:06:00,
2013-01-15 20:21:00,18.9,11.4,29.47,SSW,202,0.0,-999.0,72,-99.99,,,0.00,Acu-Link.com,2013-01-16 02:21:00,
2013-01-15 20:36:00,19.9,12.0,29.46,SSW,202,0.0,-999.0,71,-99.99,,,0.00,Acu-Link.com,2013-01-16 02:36:00,
2013-01-15 20:51:00,19.8,11.6,29.44,SSW,202,0.0,-999.0,70,-99.99,,,0.00,Acu-Link.com,2013-01-16 02:51:00,
2013-01-15 21:06:00,19.6,11.1,29.44,SSW,202,0.0,-999.0,69,-99.99,,,0.00,Acu-Link.com,2013-01-16 03:06:00,
2013-01-15 21:21:00,19.4,10.9,29.43,SW,225,0.0,-999.0,69,-99.99,,,0.00,Acu-Link.com,2013-01-16 03:21:00,
2013-01-15 21:36:00,19.6,11.1,29.44,SSW,202,0.0,-999.0,69,-99.99,,,0.00,Acu-Link.com,2013-01-16 03:36:00,
2013-01-15 21:52:00,19.4,10.9,29.43,South,180,0.0,-999.0,69,-99.99,,,0.00,Acu-Link.com,2013-01-16 03:52:00,
2013-01-15 22:07:00,19.2,11.0,29.42,SW,225,0.0,-999.0,70,-99.99,,,0.00,Acu-Link.com,2013-01-16 04:07:00,
2013-01-15 22:22:00,19.6,11.4,29.42,SSW,202,0.0,-999.0,70,-99.99,,,0.00,Acu-Link.com,2013-01-16 04:22:00,
2013-01-15 22:37:00,19.0,10.9,29.41,South,180,0.0,-999.0,70,-99.99,,,0.00,Acu-Link.com,2013-01-16 04:37:00,
2013-01-15 22:52:00,19.2,11.0,29.40,SSW,202,0.0,-999.0,70,-99.99,,,0.00,Acu-Link.com,2013-01-16 04:52:00,
2013-01-15 23:07:00,19.4,11.2,29.40,SW,225,0.0,-999.0,70,-99.99,,,0.00,Acu-Link.com,2013-01-16 05:07:00,
2013-01-15 23:22:00,19.0,11.2,29.39,SW,225,0.0,-999.0,71,-99.99,,,0.00,Acu-Link.com,2013-01-16 05:22:00,
2013-01-15 23:37:00,18.7,10.9,29.38,SSW,202,0.0,-999.0,71,-99.99,,,0.00,Acu-Link.com,2013-01-16 05:37:00,
2013-01-15 23:52:00,18.9,11.1,29.37,WSW,247,0.0,-999.0,71,-99.99,,,0.00,Acu-Link.com,2013-01-16 05:52:00,